LVIRU SAME-SABE

Flight info

Callsign LVIRU
Flight time 1h 13m
Altitude 34000
Route SAME 36 KAMU2C KAMUV KOVUN RAXUR PULGA UT670 SNT DCT SABE
Aircraft B350/L-S/C

Departure

Time 2026-05-05 22:34
Airport Governor Francisco Gabrielli International Airport (SAME)

Arrival

Time 2026-05-05 23:48
Airport Aeroparque Jorge Newbery (SABE)
Time Latitude Longitude Altitude Speed Heading
2026-05-05 22:17 -32.82879 -68.79654 2384 ft 0 kts 91°
2026-05-05 22:24 -32.82898 -68.79642 2394 ft 8 kts 187°
2026-05-05 22:24 -32.82965 -68.79585 2393 ft 17 kts 139°
2026-05-05 22:25 -32.83067 -68.79499 2397 ft 11 kts 195°
2026-05-05 22:25 -32.83118 -68.79514 2394 ft 2 kts 193°
2026-05-05 22:25 -32.83121 -68.79515 2394 ft 0 kts 193°
2026-05-05 22:26 -32.83145 -68.79522 2395 ft 9 kts 193°
2026-05-05 22:26 -32.83173 -68.79530 2398 ft 0 kts 193°
2026-05-05 22:27 -32.83175 -68.79530 2398 ft 3 kts 190°
2026-05-05 22:27 -32.83183 -68.79516 2398 ft 0 kts 32°
2026-05-05 22:28 -32.83180 -68.79515 2398 ft 3 kts 10°
2026-05-05 22:28 -32.83120 -68.79512 2394 ft 14 kts
2026-05-05 22:28 -32.82985 -68.79509 2395 ft 25 kts 359°
2026-05-05 22:28 -32.82776 -68.79507 2396 ft 35 kts
2026-05-05 22:29 -32.82507 -68.79502 2398 ft 42 kts
2026-05-05 22:29 -32.82196 -68.79496 2400 ft 47 kts
2026-05-05 22:29 -32.81968 -68.79486 2396 ft 23 kts 16°
2026-05-05 22:29 -32.81904 -68.79391 2398 ft 16 kts 99°
2026-05-05 22:30 -32.81982 -68.79286 2397 ft 18 kts 152°
2026-05-05 22:30 -32.82063 -68.79269 2397 ft 0 kts 181°
2026-05-05 22:33 -32.82405 -68.79273 2404 ft 103 kts 180°
2026-05-05 22:34 -32.83447 -68.79310 2484 ft 188 kts 182°
2026-05-05 22:34 -32.84909 -68.79404 3165 ft 233 kts 182°
2026-05-05 22:34 -32.86595 -68.79510 4492 ft 245 kts 179°
2026-05-05 22:34 -32.88308 -68.79408 6062 ft 248 kts 176°
2026-05-05 22:35 -32.90045 -68.79316 7499 ft 253 kts 177°
2026-05-05 22:35 -32.91763 -68.78704 8766 ft 267 kts 150°
2026-05-05 22:35 -32.93090 -68.77117 10003 ft 278 kts 121°
2026-05-05 22:35 -32.93675 -68.74909 11157 ft 286 kts 92°
2026-05-05 22:36 -32.93450 -68.72576 12328 ft 291 kts 74°
2026-05-05 22:36 -32.92966 -68.70200 13531 ft 299 kts 76°
2026-05-05 22:36 -32.92679 -68.67704 14639 ft 310 kts 85°
2026-05-05 22:36 -32.92665 -68.65093 15743 ft 319 kts 89°
2026-05-05 22:37 -32.92652 -68.61901 17077 ft 329 kts 86°
2026-05-05 22:37 -32.92529 -68.59145 18188 ft 338 kts 85°
2026-05-05 22:37 -32.92495 -68.56306 19188 ft 346 kts 88°
2026-05-05 22:37 -32.92441 -68.53420 20201 ft 352 kts 86°
2026-05-05 22:38 -32.92380 -68.50477 21204 ft 359 kts 87°
2026-05-05 22:38 -32.92339 -68.47466 22203 ft 366 kts 88°
2026-05-05 22:38 -32.92302 -68.44412 23188 ft 373 kts 87°
2026-05-05 22:38 -32.92255 -68.41297 24025 ft 379 kts 87°
2026-05-05 22:39 -32.92203 -68.38172 24843 ft 385 kts 87°
2026-05-05 22:39 -32.92153 -68.34958 25654 ft 390 kts 87°
2026-05-05 22:39 -32.92103 -68.31702 26450 ft 396 kts 87°
2026-05-05 22:39 -32.92050 -68.28402 27222 ft 402 kts 87°
2026-05-05 22:40 -32.91995 -68.25049 27979 ft 407 kts 87°
2026-05-05 22:40 -32.91958 -68.22806 28476 ft 411 kts 87°
2026-05-05 22:40 -32.91880 -68.18213 29436 ft 419 kts 87°
2026-05-05 22:40 -32.91841 -68.15911 29905 ft 422 kts 87°
2026-05-05 22:41 -32.91780 -68.12393 30497 ft 427 kts 87°
2026-05-05 22:41 -32.91717 -68.08838 31090 ft 431 kts 87°
2026-05-05 22:41 -32.91653 -68.05264 31666 ft 435 kts 87°
2026-05-05 22:42 -32.91515 -67.97773 32805 ft 443 kts 87°
2026-05-05 22:42 -32.91446 -67.94094 33323 ft 447 kts 87°
2026-05-05 22:42 -32.91374 -67.90359 33825 ft 451 kts 86°
2026-05-05 22:42 -32.91302 -67.86610 34230 ft 456 kts 87°
2026-05-05 22:43 -32.91227 -67.82822 34627 ft 460 kts 87°
2026-05-05 22:43 -32.91150 -67.78994 35000 ft 464 kts 87°
2026-05-05 22:43 -32.91072 -67.75138 35363 ft 468 kts 87°
2026-05-05 22:43 -32.91062 -67.71247 35704 ft 473 kts 93°
2026-05-05 22:44 -32.91543 -67.67408 36053 ft 476 kts 104°
2026-05-05 22:44 -32.92305 -67.63563 36382 ft 479 kts 104°
2026-05-05 22:44 -32.93073 -67.59688 36717 ft 483 kts 104°
2026-05-05 22:44 -32.93837 -67.55779 37031 ft 486 kts 104°
2026-05-05 22:45 -32.94602 -67.51843 37350 ft 489 kts 104°
2026-05-05 22:45 -32.95379 -67.47879 37652 ft 492 kts 104°
2026-05-05 22:45 -32.96160 -67.43888 37934 ft 496 kts 104°
2026-05-05 22:45 -32.96940 -67.39880 38224 ft 499 kts 104°
2026-05-05 22:46 -32.97722 -67.35846 38510 ft 501 kts 104°
2026-05-05 22:46 -32.98500 -67.31837 38739 ft 503 kts 104°
2026-05-05 22:46 -32.99293 -67.27749 38832 ft 510 kts 104°
2026-05-05 22:47 -33.00906 -67.19396 38850 ft 524 kts 104°
2026-05-05 22:47 -33.02547 -67.10859 38853 ft 529 kts 104°
2026-05-05 22:48 -33.04191 -67.02283 38851 ft 531 kts 104°
2026-05-05 22:48 -33.05823 -66.93728 38848 ft 532 kts 104°
2026-05-05 22:49 -33.07459 -66.85126 38850 ft 532 kts 104°
2026-05-05 22:49 -33.09089 -66.76518 38851 ft 532 kts 104°
2026-05-05 22:50 -33.10714 -66.67896 38858 ft 532 kts 104°
2026-05-05 22:50 -33.12333 -66.59282 38870 ft 532 kts 104°
2026-05-05 22:51 -33.13933 -66.50726 38873 ft 531 kts 104°
2026-05-05 22:51 -33.15538 -66.42111 38882 ft 531 kts 104°
2026-05-05 22:52 -33.17139 -66.33482 38882 ft 531 kts 104°
2026-05-05 22:52 -33.18733 -66.24857 38882 ft 531 kts 104°
2026-05-05 22:53 -33.20307 -66.16307 38878 ft 531 kts 104°
2026-05-05 22:53 -33.21888 -66.07681 38880 ft 531 kts 104°
2026-05-05 22:54 -33.23465 -65.99038 38884 ft 530 kts 104°
2026-05-05 22:54 -33.25020 -65.90487 38887 ft 530 kts 104°
2026-05-05 22:55 -33.26590 -65.81814 38883 ft 530 kts 104°
2026-05-05 22:55 -33.28141 -65.73210 38880 ft 530 kts 104°
2026-05-05 22:56 -33.29679 -65.64645 38883 ft 529 kts 104°
2026-05-05 22:56 -33.31219 -65.56030 38887 ft 529 kts 104°
2026-05-05 22:57 -33.32750 -65.47426 38888 ft 529 kts 104°
2026-05-05 22:57 -33.34253 -65.38951 38891 ft 529 kts 104°
2026-05-05 22:58 -33.35789 -65.30251 38891 ft 528 kts 104°
2026-05-05 22:58 -33.37301 -65.21649 38895 ft 528 kts 104°
2026-05-05 22:59 -33.38811 -65.13015 38899 ft 528 kts 104°
2026-05-05 22:59 -33.40304 -65.04455 38897 ft 528 kts 104°
2026-05-05 23:00 -33.42548 -64.91507 38899 ft 528 kts 104°
2026-05-05 23:00 -33.44033 -64.82894 38894 ft 528 kts 104°
2026-05-05 23:01 -33.45509 -64.74294 38896 ft 527 kts 104°
2026-05-05 23:01 -33.46913 -64.66075 38894 ft 527 kts 104°
2026-05-05 23:02 -33.48378 -64.57471 38887 ft 527 kts 104°
2026-05-05 23:02 -33.49809 -64.48862 38885 ft 527 kts 103°
2026-05-05 23:03 -33.51176 -64.40224 38888 ft 527 kts 103°
2026-05-05 23:03 -33.52579 -64.31598 38885 ft 527 kts 103°
2026-05-05 23:04 -33.53938 -64.23026 38884 ft 527 kts 103°
2026-05-05 23:04 -33.55323 -64.14367 38882 ft 527 kts 103°
2026-05-05 23:05 -33.56690 -64.05712 38884 ft 528 kts 103°
2026-05-05 23:05 -33.58047 -63.97115 38886 ft 528 kts 103°
2026-05-05 23:06 -33.59404 -63.88460 38883 ft 528 kts 103°
2026-05-05 23:06 -33.60758 -63.79789 38885 ft 528 kts 103°
2026-05-05 23:07 -33.62104 -63.71129 38881 ft 529 kts 103°
2026-05-05 23:07 -33.63448 -63.62438 38883 ft 529 kts 103°
2026-05-05 23:08 -33.64775 -63.53813 38884 ft 529 kts 103°
2026-05-05 23:08 -33.66107 -63.45117 38885 ft 529 kts 103°
2026-05-05 23:09 -33.67434 -63.36415 38885 ft 530 kts 103°
2026-05-05 23:09 -33.68755 -63.27704 38885 ft 530 kts 103°
2026-05-05 23:10 -33.70073 -63.18970 38886 ft 531 kts 103°
2026-05-05 23:10 -33.71383 -63.10247 38885 ft 531 kts 103°
2026-05-05 23:11 -33.72682 -63.01552 38886 ft 532 kts 102°
2026-05-05 23:11 -33.74027 -62.92798 38882 ft 532 kts 103°
2026-05-05 23:12 -33.75368 -62.84056 38890 ft 533 kts 103°
2026-05-05 23:12 -33.76698 -62.75287 38886 ft 533 kts 103°
2026-05-05 23:13 -33.78031 -62.66516 38887 ft 534 kts 103°
2026-05-05 23:13 -33.79342 -62.57789 38888 ft 534 kts 103°
2026-05-05 23:14 -33.80662 -62.49004 38891 ft 534 kts 103°
2026-05-05 23:14 -33.81974 -62.40201 38891 ft 534 kts 103°
2026-05-05 23:15 -33.83284 -62.31382 38891 ft 535 kts 103°
2026-05-05 23:15 -33.84578 -62.22612 38895 ft 535 kts 103°
2026-05-05 23:16 -33.85874 -62.13797 38894 ft 535 kts 103°
2026-05-05 23:16 -33.87165 -62.04965 38896 ft 535 kts 103°
2026-05-05 23:17 -33.88448 -61.96141 38898 ft 535 kts 103°
2026-05-05 23:17 -33.89729 -61.87286 38879 ft 539 kts 102°
2026-05-05 23:18 -33.91019 -61.78321 38883 ft 545 kts 102°
2026-05-05 23:18 -33.92303 -61.69348 38891 ft 547 kts 102°
2026-05-05 23:19 -33.93375 -61.61820 38896 ft 548 kts 102°
2026-05-05 23:19 -33.94658 -61.52762 38899 ft 548 kts 102°
2026-05-05 23:20 -33.95934 -61.43712 38904 ft 548 kts 102°
2026-05-05 23:20 -33.97205 -61.34634 38906 ft 548 kts 102°
2026-05-05 23:21 -33.98456 -61.25627 38910 ft 547 kts 102°
2026-05-05 23:21 -33.99709 -61.16572 38910 ft 547 kts 102°
2026-05-05 23:22 -34.00954 -61.07518 38913 ft 547 kts 101°
2026-05-05 23:22 -34.02182 -60.98537 38912 ft 546 kts 101°
2026-05-05 23:23 -34.03413 -60.89491 38914 ft 546 kts 101°
2026-05-05 23:23 -34.04636 -60.80443 38916 ft 545 kts 101°
2026-05-05 23:24 -34.05848 -60.71427 38916 ft 545 kts 101°
2026-05-05 23:24 -34.07051 -60.62427 38919 ft 544 kts 101°
2026-05-05 23:25 -34.08241 -60.53455 38876 ft 524 kts 101°
2026-05-05 23:25 -34.08813 -60.49125 37680 ft 523 kts 101°
2026-05-05 23:25 -34.09384 -60.44830 36903 ft 512 kts 101°
2026-05-05 23:26 -34.09935 -60.40637 36127 ft 501 kts 101°
2026-05-05 23:26 -34.10474 -60.36522 35371 ft 492 kts 101°
2026-05-05 23:26 -34.10996 -60.32531 34645 ft 482 kts 101°
2026-05-05 23:26 -34.11515 -60.28567 33936 ft 473 kts 101°
2026-05-05 23:27 -34.12021 -60.24682 33112 ft 464 kts 100°
2026-05-05 23:27 -34.12516 -60.20872 32305 ft 456 kts 100°
2026-05-05 23:27 -34.13002 -60.17120 31523 ft 448 kts 100°
2026-05-05 23:27 -34.13480 -60.13421 30762 ft 441 kts 100°
2026-05-05 23:28 -34.13948 -60.09792 30022 ft 434 kts 100°
2026-05-05 23:28 -34.14408 -60.06214 29180 ft 427 kts 100°
2026-05-05 23:28 -34.14855 -60.02739 28380 ft 420 kts 100°
2026-05-05 23:28 -34.15298 -59.99277 27582 ft 414 kts 100°
2026-05-05 23:29 -34.15733 -59.95868 26815 ft 408 kts 100°
2026-05-05 23:29 -34.16161 -59.92511 26067 ft 402 kts 100°
2026-05-05 23:29 -34.16584 -59.89194 25335 ft 396 kts 100°
2026-05-05 23:29 -34.16998 -59.85927 24632 ft 390 kts 100°
2026-05-05 23:30 -34.17406 -59.82708 23941 ft 385 kts 100°
2026-05-05 23:30 -34.17808 -59.79522 23220 ft 380 kts 100°
2026-05-05 23:30 -34.18199 -59.76423 22462 ft 374 kts 100°
2026-05-05 23:30 -34.18588 -59.73336 21704 ft 369 kts 99°
2026-05-05 23:31 -34.18969 -59.70297 20976 ft 364 kts 99°
2026-05-05 23:31 -34.19346 -59.67292 20266 ft 359 kts 99°
2026-05-05 23:31 -34.19717 -59.64325 19576 ft 354 kts 99°
2026-05-05 23:31 -34.20082 -59.61404 18899 ft 350 kts 99°
2026-05-05 23:32 -34.20442 -59.58512 18243 ft 345 kts 99°
2026-05-05 23:32 -34.20797 -59.55656 17511 ft 341 kts 99°
2026-05-05 23:32 -34.21147 -59.52841 16810 ft 336 kts 99°
2026-05-05 23:32 -34.21490 -59.50066 16125 ft 332 kts 99°
2026-05-05 23:33 -34.21829 -59.47329 15456 ft 327 kts 99°
2026-05-05 23:33 -34.22162 -59.44626 14809 ft 323 kts 99°
2026-05-05 23:33 -34.22565 -59.41972 14172 ft 319 kts 101°
2026-05-05 23:33 -34.22963 -59.39375 13547 ft 315 kts 100°
2026-05-05 23:34 -34.23347 -59.36789 12898 ft 310 kts 101°
2026-05-05 23:34 -34.23733 -59.34248 12276 ft 304 kts 101°
2026-05-05 23:34 -34.24116 -59.31757 11674 ft 299 kts 101°
2026-05-05 23:34 -34.24490 -59.29304 11056 ft 294 kts 101°
2026-05-05 23:35 -34.24856 -59.26891 10469 ft 290 kts 101°
2026-05-05 23:35 -34.25217 -59.24514 9901 ft 285 kts 102°
2026-05-05 23:35 -34.25571 -59.22179 9244 ft 282 kts 101°
2026-05-05 23:35 -34.25927 -59.19839 8533 ft 282 kts 101°
2026-05-05 23:36 -34.26279 -59.17508 7894 ft 281 kts 100°
2026-05-05 23:36 -34.26629 -59.15188 7232 ft 281 kts 100°
2026-05-05 23:36 -34.26976 -59.12889 6605 ft 280 kts 100°
2026-05-05 23:36 -34.27325 -59.10573 5979 ft 279 kts 100°
2026-05-05 23:37 -34.27670 -59.08276 5459 ft 272 kts 100°
2026-05-05 23:37 -34.28006 -59.06040 4986 ft 269 kts 100°
2026-05-05 23:37 -34.28344 -59.03790 4954 ft 280 kts 100°
2026-05-05 23:37 -34.28697 -59.01435 4963 ft 289 kts 100°
2026-05-05 23:38 -34.29056 -58.99033 4962 ft 297 kts 100°
2026-05-05 23:38 -34.29427 -58.96553 4972 ft 302 kts 100°
2026-05-05 23:38 -34.29799 -58.94063 4971 ft 296 kts 100°
2026-05-05 23:38 -34.30159 -58.91640 4976 ft 289 kts 100°
2026-05-05 23:39 -34.30512 -58.89275 4972 ft 283 kts 100°
2026-05-05 23:39 -34.30853 -58.86977 4970 ft 279 kts 100°
2026-05-05 23:39 -34.31193 -58.84683 4971 ft 276 kts 100°
2026-05-05 23:39 -34.31529 -58.82411 4966 ft 273 kts 100°
2026-05-05 23:40 -34.31863 -58.80161 4967 ft 270 kts 100°
2026-05-05 23:40 -34.32202 -58.77931 4968 ft 268 kts 102°
2026-05-05 23:40 -34.32933 -58.75878 4970 ft 266 kts 122°
2026-05-05 23:40 -34.34094 -58.74152 4972 ft 264 kts 135°
2026-05-05 23:41 -34.35390 -58.72574 4970 ft 264 kts 135°
2026-05-05 23:41 -34.36667 -58.70986 4973 ft 261 kts 135°
2026-05-05 23:41 -34.37923 -58.69415 4391 ft 259 kts 134°
2026-05-05 23:41 -34.39162 -58.67874 3849 ft 256 kts 134°
2026-05-05 23:42 -34.40396 -58.66342 3342 ft 252 kts 133°
2026-05-05 23:42 -34.41603 -58.64841 2989 ft 241 kts 133°
2026-05-05 23:42 -34.42720 -58.63449 2974 ft 219 kts 133°
2026-05-05 23:42 -34.43734 -58.62185 2973 ft 200 kts 133°
2026-05-05 23:43 -34.44667 -58.61023 2967 ft 184 kts 133°
2026-05-05 23:43 -34.45533 -58.59941 2969 ft 180 kts 133°
2026-05-05 23:43 -34.46354 -58.58729 2979 ft 188 kts 122°
2026-05-05 23:43 -34.47077 -58.57451 2971 ft 179 kts 123°
2026-05-05 23:44 -34.47787 -58.56169 2665 ft 184 kts 122°
2026-05-05 23:44 -34.48467 -58.54952 2418 ft 166 kts 123°
2026-05-05 23:44 -34.49098 -58.53859 2121 ft 156 kts 124°
2026-05-05 23:44 -34.49738 -58.52840 1882 ft 155 kts 126°
2026-05-05 23:45 -34.50380 -58.51785 1711 ft 157 kts 124°
2026-05-05 23:45 -34.51027 -58.50682 1529 ft 165 kts 123°
2026-05-05 23:45 -34.51664 -58.49533 1409 ft 161 kts 120°
2026-05-05 23:45 -34.52250 -58.48383 1103 ft 161 kts 121°
2026-05-05 23:46 -34.52840 -58.47239 824 ft 160 kts 121°
2026-05-05 23:46 -34.53448 -58.46139 758 ft 152 kts 123°
2026-05-05 23:46 -34.54014 -58.45098 525 ft 148 kts 121°
2026-05-05 23:46 -34.54593 -58.44004 378 ft 157 kts 122°
2026-05-05 23:47 -34.55153 -58.42947 133 ft 147 kts 122°
2026-05-05 23:47 -34.55688 -58.41988 21 ft 125 kts 124°
2026-05-05 23:47 -34.56103 -58.41244 22 ft 69 kts 124°
2026-05-05 23:47 -34.56344 -58.40817 23 ft 54 kts 124°
2026-05-05 23:48 -34.56423 -58.40686 19 ft 0 kts 135°
2026-05-05 23:48 -34.56431 -58.40684 19 ft 3 kts 181°
2026-05-05 23:48 -34.56459 -58.40716 20 ft 9 kts 244°
2026-05-05 23:48 -34.56494 -58.40804 21 ft 15 kts 247°
2026-05-05 23:49 -34.56528 -58.40911 21 ft 7 kts 304°
2026-05-05 23:49 -34.56478 -58.40936 21 ft 7 kts 21°
2026-05-05 23:49 -34.56458 -58.40920 21 ft 0 kts 34°